Location: Dead Woman Crossing
(43.5369°N, 106.3228°W)
Time: 19:06:59
(UTC+00:00)

M-CUBED/EXP-1 PRIME - Pass Details

Date: 01 July 2022
Orbit: 422 x 631 km, 101.7° (Epoch: 17 August)

Event Time Altitude Azimuth Distance (km) Brightness Sun altitude
Exits shadow 08:01:50 52° 58° (ENE) 546 ? -22.3°
Drops below altitude 10° 08:04:57 10° 351° (N) 1,574 ? -22.1°
Sets 08:07:03 0° 347° (NNW) 2,478 ? -22.1°
